Location: Beetenbrück
(52.8113°N, 9.5946°E)
Time: 21:47:45
(UTC+00:00)

Spot 4 - Pass Details

Date: 14 April 2026
Orbit: 697 x 714 km, 98.2° (Epoch: 12 May)

Event Time Altitude Azimuth Distance (km) Brightness Sun altitude
Exits shadow 22:11:18 63° 65° (ENE) 783 3.9 -25.7°
Drops below altitude 10° 22:15:56 10° 350° (N) 2,173 7.4 -25.9°
Sets 22:18:12 0° 348° (NNW) 3,096 8.5 -26.1°
